Powrót do katalogu

THOR 1

MARCOPOLO 2

AktywnyŁącznośćGEO
NORAD 20762·PAYLOAD·🇳🇴 Norway

Wystrzelony Aug 18, 1990 z Cape Canaveral Space Force Station

Loading…

TLE

ŚwieżeSource: Space-Track

Epoka: Sep 14, 2026, 12:11 UTC

1 20762U 90074A   26257.50770862 -.00000073  00000-0  00000-0 0  9995
2 20762  14.6154   5.9604 0005531 233.6365 316.5579  0.99209394 47097

Śledź THOR 1 w czasie rzeczywistym z AllMySat

Download on the App Store